Regional Weather Roundup
Issued by NWS

Home | Current Version | Previous Version | Graphics & Text | Print | Product List | Glossary On
Versions: 1 2 3 4 5 6 7 8 9 10 11 12 13 14 15 16 17 18 19 20 21 22 23 24 25 26 27 28 29 30 31 32 33 34 35 36 37 38 39 40 41 42 43 44 45 46 47 48 49 50
000
ASUS45 KPSR 272010
RWRAZ

ARIZONA REGIONAL HOURLY WEATHER ROUNDUP
NATIONAL WEATHER SERVICE PHOENIX AZ
100 PM MST WED AUG 27 2014

NOTE: FAIR INDICATES FEW OR NO CLOUDS BELOW 12,000 FEET WITH NO
SIGNIFICANT WEATHER AND/OR OBSTRUCTIONS TO VISIBILITY.

AZZ001>003-036-272100-
NORTHWEST ARIZONA

CITY           SKY/WX    TMP DP  RH WIND       PRES   REMARKS
BULLHEAD CITY  SUNNY     97  54  23 CALM      29.97F
KINGMAN        MOSUNNY   88  50  27 SW14      30.15F
$$

AZZ004>008-015-016-018-272100-
NORTH CENTRAL ARIZONA

CITY           SKY/WX    TMP DP  RH WIND       PRES   REMARKS
GRAND CANYON   MOSUNNY   73  41  31 W7        30.36F
WILLIAMS       SUNNY     72  46  40 SW14      30.42F
PRESCOTT       PTSUNNY   80  52  37 W10       30.26F
FLAGSTAFF      PTSUNNY   68  49  50 S10G17    30.38F
PAYSON         SUNNY     81  52  36 W9G17     30.29S
PAGE           SUNNY     77  52  41 MISG      30.21F
$$

AZZ009>014-017-272100-
NORTHEAST ARIZONA

CITY           SKY/WX    TMP DP  RH WIND       PRES   REMARKS
WINSLOW        MOSUNNY   77  58  51 VRB3      30.27F
SAINT JOHNS    SUNNY     73  54  51 CALM      30.32F
SHOW LOW       MOSUNNY   68  48  49 N6        30.39S
$$

AZZ023-272100-
GREATER PHOENIX AREA

CITY           SKY/WX    TMP DP  RH WIND       PRES   REMARKS
PHOENIX        MOSUNNY   97  61  30 E5        29.99F
BUCKEYE          N/A     95  63  34 SE8       30.00F
GLENDALE       MOSUNNY   97  63  32 VRB3      30.01F
LUKE AFB       NOT AVBL
DEER VALLEY    SUNNY     94  58  29 VRB3      30.01F
SCOTTSDALE     SUNNY     95  60  31 CALM      30.03F
MESA-FALCON    PTSUNNY   97  57  26 NW6       30.01F
MESA-GATEWAY   MOSUNNY   93  59  31 SW6       30.03F
CHANDLER       MOSUNNY   93  63  36 VRB6      30.01F
$$

AZZ027-028-272100-
SOUTHWEST MARICOPA COUNTY AND PINAL COUNTY

CITY           SKY/WX    TMP DP  RH WIND       PRES   REMARKS
CASA GRANDE    MOSUNNY   95  63  34 W7        30.03S
GILA BEND      PTCLDY   100  57  23 E2        29.99F
$$

AZZ503-504-507>509-272100-
SOUTHEAST ARIZONA

CITY           SKY/WX    TMP DP  RH WIND       PRES   REMARKS
TUCSON         MOSUNNY   94  61  33 VRB3      30.11F
DAVIS-MONTHAN  SUNNY     89  61  38 W5        30.09F
RYAN FIELD       N/A     90  64  43 NW9       30.10
NOGALES        MOSUNNY   85  64  49 W6        30.18F
SIERRA VISTA   PTSUNNY   81  59  47 N8        30.25S
DOUGLAS        MOSUNNY   85  59  41 MISG      30.19F
SAFFORD        SUNNY     89  60  37 NW8       30.11F
$$

AZZ020-021-025-026-031-272100-
SOUTHWEST ARIZONA

CITY           SKY/WX    TMP DP  RH WIND       PRES   REMARKS
YUMA           MOSUNNY  103  44  13 VRB5      29.93F
$$

CAZ031-033-041-043-047-048-061-272100-
SOUTHERN CALIFORNIA

CITY           SKY/WX    TMP DP  RH WIND       PRES   REMARKS
DOWNTOWN L.A.  SUNNY     90  57  32 VRB5      30.00F
L.A. AIRPORT   MOSUNNY   81  61  50 W10       30.02F
SAN DIEGO      SUNNY     83  63  50 NW9       30.02F
BURBANK        SUNNY     91  49  23 S5        30.02F
ONTARIO        SUNNY     93  47  20 SW7       30.02F
RIVERSIDE      SUNNY     93  46  19 W7        30.02F
PALM SPRINGS   MOSUNNY  101  50  18 S7        29.95F
EL CENTRO NAS  MOSUNNY  103  44  13 S8        29.91F
IMPERIAL       SUNNY    102  49  16 VRB3      29.90F
BLYTHE         SUNNY    100  46  16 S3        29.94F
NEEDLES        SUNNY    100  50  18 E9        29.97F
$$

NVZ020-UTZ003-272100-
SOUTHERN NEVADA-UTAH

CITY           SKY/WX    TMP DP  RH WIND       PRES   REMARKS
LAS VEGAS      MOSUNNY   89  46  22 S9        30.04F
SALT LAKE CITY PTSUNNY   72  52  49 NW7       30.22S
$$

NMZ009-TXZ055-272100-
NEW MEXICO-WEST TEXAS

CITY           SKY/WX    TMP DP  RH WIND       PRES   REMARKS
ALBUQUERQUE    PTSUNNY   78  51  38 SW10      30.28F
EL PASO        MOSUNNY   86  58  38 CALM      30.16F
$$


........................KEY........................
SKY/WX - SKY CONDITION/WEATHER
TMP    - TEMPERATURE IN FAHRENHEIT
DP     - DEW POINT IN FAHRENHEIT
RH     - RELATIVE HUMIDITY IN PERCENT
WIND   - DIRECTION AND SPEED IN MILES PER HOUR (MPH)
VRB    - VARIABLE WIND DIRECTION
PRES   - MEAN SEA LEVEL PRESSURE IN INCHES OF MERCURY
         F - FALLING PRESSURE   R - RISING PRESSURE
         S - STEADY PRESSURE
VSB    - VISIBILITY IN MILES
HX     - HEAT INDEX IN FAHRENHEIT
WCI    - WIND CHILL INDEX IN FAHRENHEIT
TC     - TEMPERATURE IN CELSIUS WHICH IS ALSO KNOWN AS
         TEMPERATURE IN CENTIGRADE
AFB    - AIR FORCE BASE
         LUKE AFB IS LUKE AIR FORCE BASE
         DAVIS-MONTHAN IS DAVIS-MONTHAN AIR FORCE BASE
NAS    - NAVAL AIR STATION
         EL CENTRO NAS IS EL CENTRO NAVAL AIR STATION
N/A    - NOT AVAILABLE


USA.gov is the U.S. government's official web portal to all federal, state and local government web resources and services.